Find Starlink 33967

NORAD ID: 64027 Int'l Des: 2025-102 Owner: SPXS Country: US Constellation: starlink operational
LEOCIRCULAR

現在のビュー

3D地球を読み込み中...

About Starlink 33967

Starlink 33967 (NORAD 64027) is a starlink constellation satellite (v2 mini) launched May 16, 2025 by SPXS of US. It operates in LEO, CIRCULAR orbit with a mass of 575.00 kg.

次回通過

Passes for default location (London). Set your location on the main map for personalized predictions.

高度履歴

Loading altitude history...

軌道要素

1 64027U 25102F 26235.46575551 -.00006295 00000-0 -52041-3 0 9994
2 64027 70.0006 53.9501 0002994 265.7596 94.3221 14.98318573 70873
Epoch: Aug 23, 2026 • Age: 46 hours

現在のステータス

高度 579.9 km
遠地点 / 近地点 N/A
速度 7.57 km/s
衛星直下点 -23.93°S, 76.79°W
打ち上げ日 May 16, 2025
運用期間 1.2 years
タイプ internet

技術仕様

分類 Payload
質量 575.00 kg
乾燥質量 530.00 kg
総質量 575.00 kg
長さ 0.30 m
直径 4.10 m
スパン 29.00 m
形状 Box + pan
製造者 SPXS
バスタイプ Starlink V2MO
フェーズステータス In Orbit
所有者/国 SPXS/US

Most Searched